Hourly Weather Abercorn

Today, 25 July, Sunday

Time Temperature Precipitation Wind Pressure Humidity
00:00 +20°C° 0 mm 4 mps 740 mmHg 61%
01:00 +21°C° 0 mm 5 mps 740 mmHg 60%
02:00 +20°C° 1.4 mm 5 mps 739 mmHg 71%
03:00 +19°C° 1.4 mm 6 mps 738 mmHg 82%
04:00 +17°C° 1.4 mm 6 mps 738 mmHg 93%
05:00 +17°C° 0 mm 6 mps 738 mmHg 92%
06:00 +19°C° 0 mm 6 mps 738 mmHg 91%
07:00 +19°C° 0 mm 6 mps 738 mmHg 90%
08:00 +20°C° 0.1 mm 5 mps 738 mmHg 86%
09:00 +21°C° 0.1 mm 4 mps 738 mmHg 83%
10:00 +22°C° 0.1 mm 4 mps 739 mmHg 79%
11:00 +22°C° 0.3 mm 3 mps 739 mmHg 81%
12:00 +24°C° 0.3 mm 3 mps 739 mmHg 83%
13:00 +24°C° 0.3 mm 3 mps 739 mmHg 85%
14:00 +25°C° 0.3 mm 3 mps 739 mmHg 81%
15:00 +26°C° 0.3 mm 2 mps 739 mmHg 76%
16:00 +27°C° 0.3 mm 2 mps 738 mmHg 71%
17:00 +25°C° 0.1 mm 2 mps 738 mmHg 77%
18:00 +24°C° 0.1 mm 2 mps 738 mmHg 82%
19:00 +23°C° 0.1 mm 2 mps 738 mmHg 87%
20:00 +21°C° 0.1 mm 2 mps 738 mmHg 88%
21:00 +20°C° 0.1 mm 2 mps 738 mmHg 89%
22:00 +19°C° 0.1 mm 2 mps 738 mmHg 91%
23:00 +19°C° 0.5 mm 2 mps 738 mmHg 92%

Tomorrow, 26 July, Monday

Time Temperature Precipitation Wind Pressure Humidity
00:00 +19°C° 0.5 mm 1 mps 739 mmHg 94%
01:00 +19°C° 0.5 mm 1 mps 739 mmHg 96%
02:00 +19°C° 0.3 mm 1 mps 739 mmHg 96%
03:00 +18°C° 0.3 mm 1 mps 739 mmHg 97%
04:00 +18°C° 0.3 mm 1 mps 739 mmHg 97%
05:00 +19°C° 0 mm 1 mps 740 mmHg 96%
06:00 +20°C° 0 mm 1 mps 740 mmHg 94%
07:00 +20°C° 0 mm 1 mps 741 mmHg 93%
08:00 +21°C° 0 mm 2 mps 741 mmHg 83%
09:00 +24°C° 0 mm 2 mps 741 mmHg 73%
10:00 +25°C° 0 mm 3 mps 742 mmHg 63%
11:00 +26°C° 0 mm 3 mps 741 mmHg 59%
12:00 +27°C° 0 mm 3 mps 741 mmHg 56%
13:00 +28°C° 0 mm 3 mps 741 mmHg 52%
14:00 +28°C° 0.1 mm 3 mps 741 mmHg 56%
15:00 +27°C° 0.1 mm 3 mps 741 mmHg 59%
16:00 +27°C° 0.1 mm 3 mps 741 mmHg 63%
17:00 +25°C° 0.4 mm 2 mps 741 mmHg 70%
18:00 +23°C° 0.4 mm 1 mps 741 mmHg 78%
19:00 +22°C° 0.4 mm 1 mps 741 mmHg 85%
20:00 +21°C° 0 mm 1 mps 741 mmHg 87%
21:00 +20°C° 0 mm 1 mps 741 mmHg 89%
22:00 +19°C° 0 mm 1 mps 741 mmHg 90%
23:00 +18°C° 0 mm 2 mps 741 mmHg 90%

Day after tomorrow, 27 July, Tuesday

Time Temperature Precipitation Wind Pressure Humidity
00:00 +17°C° 0 mm 2 mps 741 mmHg 90%
01:00 +17°C° 0 mm 2 mps 741 mmHg 90%
02:00 +17°C° 0 mm 2 mps 741 mmHg 90%
03:00 +17°C° 0 mm 2 mps 741 mmHg 90%
04:00 +17°C° 0 mm 2 mps 741 mmHg 90%
05:00 +18°C° 0 mm 2 mps 741 mmHg 88%
06:00 +19°C° 0 mm 2 mps 741 mmHg 87%
07:00 +19°C° 0 mm 2 mps 742 mmHg 85%
08:00 +20°C° 0 mm 2 mps 742 mmHg 81%
09:00 +21°C° 0 mm 2 mps 742 mmHg 77%
10:00 +21°C° 0 mm 2 mps 743 mmHg 74%
11:00 +20°C° 0.6 mm 2 mps 743 mmHg 80%
12:00 +19°C° 0.6 mm 2 mps 743 mmHg 87%
13:00 +18°C° 0.6 mm 2 mps 743 mmHg 94%
14:00 +19°C° 0.2 mm 1 mps 743 mmHg 93%
15:00 +19°C° 0.2 mm 1 mps 743 mmHg 93%
16:00 +19°C° 0.2 mm 1 mps 743 mmHg 92%
17:00 +19°C° 0.1 mm 1 mps 743 mmHg 93%
18:00 +19°C° 0.1 mm 1 mps 743 mmHg 93%
19:00 +18°C° 0.1 mm 1 mps 743 mmHg 93%
20:00 +18°C° 0 mm 1 mps 743 mmHg 94%
21:00 +16°C° 0 mm 1 mps 744 mmHg 95%
22:00 +15°C° 0 mm 1 mps 744 mmHg 96%
23:00 +15°C° 0 mm 1 mps 744 mmHg 96%

28 July, Wednesday

Time Temperature Precipitation Wind Pressure Humidity
00:00 +14°C° 0 mm 1 mps 744 mmHg 96%
01:00 +14°C° 0 mm 1 mps 744 mmHg 97%
02:00 +14°C° 0 mm 1 mps 744 mmHg 96%
03:00 +13°C° 0 mm 1 mps 744 mmHg 96%
04:00 +12°C° 0 mm 1 mps 744 mmHg 96%
05:00 +13°C° 0 mm 1 mps 744 mmHg 93%
06:00 +14°C° 0 mm 1 mps 745 mmHg 90%
07:00 +15°C° 0 mm 1 mps 745 mmHg 86%
08:00 +17°C° 0 mm 2 mps 745 mmHg 76%
09:00 +18°C° 0 mm 2 mps 745 mmHg 65%
10:00 +20°C° 0 mm 3 mps 746 mmHg 54%
11:00 +21°C° 0 mm 3 mps 745 mmHg 51%
12:00 +21°C° 0 mm 3 mps 745 mmHg 48%
13:00 +22°C° 0 mm 3 mps 745 mmHg 46%
14:00 +22°C° 0 mm 3 mps 745 mmHg 46%
15:00 +22°C° 0 mm 3 mps 745 mmHg 47%
16:00 +22°C° 0 mm 3 mps 744 mmHg 47%
17:00 +20°C° 0 mm 2 mps 744 mmHg 56%
18:00 +19°C° 0 mm 1 mps 744 mmHg 65%
19:00 +15°C° 0 mm 0 mps 744 mmHg 74%
20:00 +14°C° 0 mm 0 mps 744 mmHg 76%
21:00 +13°C° 0 mm 0 mps 744 mmHg 77%
22:00 +14°C° 0 mm 1 mps 744 mmHg 78%
23:00 +13°C° 0 mm 1 mps 744 mmHg 78%

29 July, Thursday

Time Temperature Precipitation Wind Pressure Humidity
00:00 +13°C° 0 mm 1 mps 744 mmHg 77%
01:00 +13°C° 0 mm 1 mps 744 mmHg 77%
02:00 +13°C° 0 mm 1 mps 744 mmHg 76%
03:00 +13°C° 0 mm 1 mps 744 mmHg 75%
04:00 +14°C° 0 mm 1 mps 744 mmHg 74%
05:00 +15°C° 0 mm 1 mps 744 mmHg 72%
06:00 +16°C° 0 mm 1 mps 744 mmHg 70%
07:00 +16°C° 0 mm 0 mps 744 mmHg 67%
08:00 +18°C° 0 mm 0 mps 744 mmHg 61%
09:00 +20°C° 0 mm 0 mps 744 mmHg 54%
10:00 +23°C° 0 mm 0 mps 744 mmHg 48%
11:00 +25°C° 0 mm 1 mps 743 mmHg 45%
12:00 +26°C° 0 mm 1 mps 743 mmHg 43%
13:00 +27°C° 0 mm 1 mps 742 mmHg 40%
14:00 +26°C° 0 mm 1 mps 742 mmHg 44%
15:00 +26°C° 0 mm 1 mps 742 mmHg 47%
16:00 +25°C° 0 mm 1 mps 742 mmHg 51%
17:00 +24°C° 0 mm 1 mps 742 mmHg 58%
18:00 +22°C° 0 mm 1 mps 742 mmHg 66%
19:00 +18°C° 0 mm 0 mps 741 mmHg 73%
20:00 +19°C° 0 mm 1 mps 741 mmHg 73%
21:00 +19°C° 0 mm 1 mps 741 mmHg 73%
22:00 +18°C° 0 mm 1 mps 741 mmHg 74%
23:00 +18°C° 0 mm 1 mps 741 mmHg 73%

30 July, Friday

Time Temperature Precipitation Wind Pressure Humidity
00:00 +18°C° 0 mm 1 mps 741 mmHg 72%
01:00 +16°C° 0 mm 0 mps 741 mmHg 71%
02:00 +16°C° 0.5 mm 1 mps 741 mmHg 78%
03:00 +16°C° 0.5 mm 1 mps 741 mmHg 85%
04:00 +15°C° 0.5 mm 1 mps 740 mmHg 93%
05:00 +15°C° 1.6 mm 1 mps 741 mmHg 94%
06:00 +15°C° 1.6 mm 1 mps 741 mmHg 96%
07:00 +14°C° 1.6 mm 0 mps 741 mmHg 98%
08:00 +14°C° 0.2 mm 0 mps 741 mmHg 97%
09:00 +15°C° 0.2 mm 0 mps 741 mmHg 96%
10:00 +15°C° 0.2 mm 0 mps 741 mmHg 94%
11:00 +16°C° 0.1 mm 0 mps 741 mmHg 90%
12:00 +19°C° 0.1 mm 1 mps 741 mmHg 85%
13:00 +20°C° 0.1 mm 1 mps 741 mmHg 81%
14:00 +20°C° 0.3 mm 1 mps 741 mmHg 81%
15:00 +20°C° 0.3 mm 1 mps 741 mmHg 80%
16:00 +20°C° 0.3 mm 1 mps 741 mmHg 80%
17:00 +19°C° 0.1 mm 1 mps 741 mmHg 85%
18:00 +18°C° 0.1 mm 1 mps 741 mmHg 89%
19:00 +16°C° 0.1 mm 1 mps 741 mmHg 93%
20:00 +16°C° 0 mm 1 mps 741 mmHg 94%
21:00 +15°C° 0 mm 1 mps 741 mmHg 95%
22:00 +13°C° 0 mm 0 mps 742 mmHg 96%
23:00 +13°C° 0 mm 0 mps 742 mmHg 96%
Show more